Kirtland AFB, NM

6:17 AM MST on December 03, 2016 (GMT -0700)
Albuquerque International Sunport

Weather History for KABQ - November, 2014

Change the Weather History Date:

Monday, November 24, 2014

  Actual Average Record
Temperature  
Mean Temperature 36 °F 41 °F  
Max Temperature 46 °F 52 °F 76 °F (1909)
Min Temperature 26 °F 31 °F 5 °F (1931)
Degree Days  
Heating Degree Days 29 24  
Month to date heating degree days 447 453  
Since 1 July heating degree days 560 719  
Cooling Degree Days 0 0  
Month to date cooling degree days 0 0  
Year to date cooling degree days 1444 1322  
Moisture  
Dew Point 10 °F    
Average Humidity 35    
Maximum Humidity 52    
Minimum Humidity 17    
Precipitation  
Precipitation 0.00 in 0.01 in 0.50 in (1895)
Month to date precipitation 0.25 0.46  
Year to date precipitation 7.67 8.84  
Snow  
Snow 0.00 in - - ()
Month to date snowfall T  
Since 1 July snowfall T  
Since 1 September snowfall T  
Snow Depth 0.00 in    
Sea Level Pressure  
Sea Level Pressure 30.18 in    
Wind  
Wind Speed 11 mph (NNW)    
Max Wind Speed 31 mph    
Max Gust Speed 37 mph    
Visibility 10 miles    
Events      
T = Trace of Precipitation, MM = Missing Value Source: NWS Daily Summary

Daily Weather History Graph

Daily Weather History Graph

Search for Another Location

Airport or City:

Trip Planner

Search our weather history database for the weather conditions in past years. The results will help you decide how hot, cold, wet, or windy it might be!

Date:

Astronomy

Nov. 24, 2014 Rise Set
Actual Time 6:49 AM MST 4:56 PM MST
Civil Twilight 6:22 AM MST 5:23 PM MST
Nautical Twilight 5:51 AM MST 5:54 PM MST
Astronomical Twilight 5:20 AM MST 6:25 PM MST
Moon 8:45 AM MST (11/24) 7:20 PM MST (11/24)
Length of Visible Light 11h 01m
Length of Day
10h 06m
Waxing Crescent, 6% of the Moon is Illuminated
Nov 24
Waxing Crescent
Nov 29
First Quarter
Dec 6
Full
Dec 14
Last Quarter
Dec 21
New

Hourly Weather History & Observations

Time (MST) Temp. Windchill Dew Point Humidity Pressure Visibility Wind Dir Wind Speed Gust Speed Precip Events Conditions
12:52 AM 33.1 °F 24.9 °F 12.0 °F 42% 30.08 in 10.0 mi North 10.4 mph - N/A   Clear
1:52 AM 32.0 °F 27.5 °F 12.0 °F 44% 30.10 in 10.0 mi NNE 4.6 mph - N/A   Clear
2:52 AM 30.9 °F 22.2 °F 10.0 °F 42% 30.12 in 10.0 mi NNE 10.4 mph - N/A   Clear
3:52 AM 30.9 °F 20.7 °F 9.0 °F 40% 30.11 in 10.0 mi North 13.8 mph - N/A   Clear
4:52 AM 30.0 °F 24.1 °F 9.0 °F 41% 30.14 in 10.0 mi Variable 5.8 mph - N/A   Clear
5:52 AM 28.0 °F 20.8 °F 9.0 °F 45% 30.17 in 10.0 mi NW 6.9 mph - N/A   Clear
6:52 AM 28.0 °F 21.7 °F 8.1 °F 43% 30.18 in 10.0 mi North 5.8 mph - N/A   Clear
7:52 AM 30.9 °F 25.2 °F 8.1 °F 38% 30.18 in 10.0 mi North 5.8 mph - N/A   Partly Cloudy
8:52 AM 33.1 °F 28.7 °F 9.0 °F 37% 30.20 in 10.0 mi Variable 4.6 mph - N/A   Scattered Clouds
9:52 AM 35.1 °F 32.2 °F 8.1 °F 33% 30.20 in 10.0 mi WNW 3.5 mph - N/A   Scattered Clouds
10:52 AM 39.0 °F 34.0 °F 7.0 °F 27% 30.16 in 10.0 mi WNW 6.9 mph - N/A   Scattered Clouds
11:52 AM 41.0 °F 36.4 °F 6.1 °F 24% 30.13 in 10.0 mi Variable 6.9 mph - N/A   Scattered Clouds
12:52 PM 44.1 °F 35.0 °F 7.0 °F 22% 30.09 in 10.0 mi NW 24.2 mph 32.2 mph N/A   Mostly Cloudy
1:52 PM 45.0 °F 37.6 °F 6.1 °F 20% 30.08 in 10.0 mi NNW 17.3 mph 32.2 mph N/A   Scattered Clouds
2:52 PM 46.0 °F 37.2 °F 3.9 °F 18% 30.08 in 10.0 mi NW 26.5 mph 33.4 mph N/A   Scattered Clouds
3:52 PM 44.1 °F 35.4 °F 5.0 °F 20% 30.11 in 10.0 mi NW 21.9 mph 32.2 mph N/A   Scattered Clouds
4:52 PM 42.1 °F 33.3 °F 6.1 °F 23% 30.15 in 10.0 mi NW 19.6 mph 27.6 mph N/A   Scattered Clouds
5:52 PM 39.9 °F 31.4 °F 8.1 °F 27% 30.20 in 10.0 mi NNW 16.1 mph 23.0 mph N/A   Scattered Clouds
6:52 PM 37.0 °F 27.4 °F 17.1 °F 44% 30.26 in 10.0 mi North 17.3 mph - N/A   Mostly Cloudy
7:52 PM 36.0 °F 29.6 °F 19.0 °F 50% 30.27 in 10.0 mi NNW 8.1 mph - N/A   Mostly Cloudy
8:52 PM 35.1 °F 26.9 °F 18.0 °F 50% 30.31 in 10.0 mi North 11.5 mph - N/A   Partly Cloudy
9:52 PM 34.0 °F 26.6 °F 17.1 °F 50% 30.34 in 10.0 mi NNW 9.2 mph - N/A   Clear
10:52 PM 32.0 °F 25.6 °F 16.0 °F 52% 30.36 in 10.0 mi NW 6.9 mph - N/A   Clear
11:52 PM 30.0 °F 24.1 °F 15.1 °F 54% 30.38 in 10.0 mi NW 5.8 mph - N/A   Clear